Location: Haut Kerinec
(48.0623°N, 4.4081°W)
Time: 11:23:41
(UTC+00:00)

Cosmos 1242 Rocket - Visible Passes

Search period start: 25 September 2020 00:00
Search period end: 05 October 2020 00:00
Orbit: 448 x 486 km, 81.2° (Epoch: 24 September)

Date Brightness Start Highest point End Pass type
(mag) Time Alt. Az. Time Alt. Az. Time Alt. Az.
26 Sep 4.9 05:09:26 10° SSE 05:12:37 28° E 05:15:49 10° NNE visible
27 Sep 5.7 04:40:11 10° SE 04:42:36 17° E 04:45:01 10° NE visible
29 Sep 3.0 05:13:05 10° S 05:16:43 66° E 05:20:21 10° NNE visible
30 Sep 4.3 04:43:14 10° SSE 04:46:36 35° E 04:49:57 10° NNE visible
01 Oct 5.2 04:13:46 10° SE 04:16:32 21° E 04:19:18 10° NE visible
02 Oct 5.8 03:45:02 10° ESE 03:46:33 12° E 03:48:03 10° ENE visible
02 Oct 2.7 05:17:21 10° SSW 05:20:56 52° WNW 05:24:30 10° N visible
03 Oct 2.5 04:47:03 10° S 04:50:43 84° E 04:54:21 10° NNE visible
04 Oct 3.6 04:17:45 15° SSE 04:20:33 45° E 04:24:02 10° NNE visible
